York, NE

6:19 PM CDT on October 21, 2019 (GMT -0500)
York Municipal

Weather History for KJYR - August, 2019

Change the Weather History Date:

Saturday, August 31, 2019

  Actual Average Record
Temperature  
Mean Temperature 64 °F -  
Max Temperature 69 °F 85 °F 101 °F (1948)
Min Temperature 59 °F 61 °F 46 °F (1967)
Degree Days  
Heating Degree Days 1    
Growing Degree Days 14 (Base 50)    
Moisture  
Dew Point 61 °F    
Average Humidity 88    
Maximum Humidity 100    
Minimum Humidity 68    
Precipitation  
Precipitation 0.46 in - - ()
Sea Level Pressure  
Sea Level Pressure 30.17 in    
Wind  
Wind Speed 6 mph (SE)    
Max Wind Speed 14 mph    
Max Gust Speed 21 mph    
Visibility 9 miles    
Events Rain , Thunderstorm    
Averages and records for this station are not official NWS values.
T = Trace of Precipitation, MM = Missing Value Source: NWS Daily Summary

Daily Weather History Graph

Daily Weather History Graph

Search for Another Location

Airport or City:

Astronomy

Aug. 31, 2019 Rise Set
Actual Time 6:56 AM CDT 8:04 PM CDT
Civil Twilight 6:27 AM CDT 8:32 PM CDT
Nautical Twilight 5:54 AM CDT 9:06 PM CDT
Astronomical Twilight 5:18 AM CDT 9:41 PM CDT
Moon 8:14 AM CDT (8/31) 9:17 PM CDT (8/31)
Length of Visible Light 14h 05m
Length of Day
13h 08m
New Moon, 3% of the Moon is Illuminated
Aug 31
New Moon
Sep 5
First Quarter
Sep 13
Full
Sep 21
Last Quarter
Sep 28
New

Hourly Weather History & Observations

Time (CDT) Temp. Dew Point Humidity Pressure Visibility Wind Dir Wind Speed Gust Speed Precip Events Conditions
12:10 AM 64.4 °F 62.6 °F 94% 30.19 in 10.0 mi SSE 4.6 mph - N/A   Overcast
12:30 AM 64.4 °F 62.6 °F 94% 30.19 in 10.0 mi SSE 5.8 mph - N/A   Overcast
12:50 AM 64.4 °F 62.6 °F 94% 30.20 in 10.0 mi SE 5.8 mph - N/A   Overcast
1:10 AM 64.4 °F 62.6 °F 94% 30.19 in 10.0 mi SE 5.8 mph - N/A   Overcast
1:30 AM 64.4 °F 62.6 °F 94% 30.20 in 10.0 mi SSE 3.5 mph - N/A   Overcast
1:50 AM 64.4 °F 62.6 °F 94% 30.20 in 10.0 mi SE 3.5 mph - N/A   Overcast
2:10 AM 64.4 °F 62.6 °F 94% 30.20 in 10.0 mi SE 4.6 mph - N/A   Overcast
2:30 AM 64.4 °F 62.6 °F 94% 30.20 in 10.0 mi ESE 5.8 mph - N/A   Mostly Cloudy
2:50 AM 64.4 °F 62.6 °F 94% 30.19 in 10.0 mi ESE 5.8 mph - N/A   Overcast
3:10 AM 64.4 °F 62.6 °F 94% 30.19 in 10.0 mi Calm Calm - N/A   Overcast
3:35 AM 62.6 °F 62.6 °F 100% 30.19 in 5.0 mi Calm Calm - 0.02 in Rain , Thunderstorm Rain
3:50 AM 62.6 °F 62.6 °F 100% 30.19 in 5.0 mi East 5.8 mph - 0.09 in Rain Light Rain
4:10 AM 62.6 °F 62.6 °F 100% 30.20 in 10.0 mi ESE 6.9 mph - N/A Rain , Thunderstorm Light Thunderstorms and Rain
4:30 AM 62.6 °F 60.8 °F 94% 30.20 in 3.0 mi Calm Calm - 0.16 in Rain , Thunderstorm Light Thunderstorms and Rain
4:50 AM 62.6 °F 59.0 °F 88% 30.21 in 9.0 mi SSE 9.2 mph - 0.18 in Rain , Thunderstorm Light Rain
5:10 AM 60.8 °F 59.0 °F 94% 30.18 in 5.0 mi SSE 13.8 mph - 0.04 in Rain Light Rain
5:30 AM 60.8 °F 59.0 °F 94% 30.17 in 5.0 mi SE 12.7 mph 20.7 mph 0.09 in Rain Light Rain
5:50 AM 60.8 °F 59.0 °F 94% 30.18 in 5.0 mi SSE 10.4 mph - 0.14 in Rain Light Rain
6:10 AM 60.8 °F 59.0 °F 94% 30.21 in 10.0 mi Calm Calm - 0.01 in   Overcast
6:30 AM 59.0 °F 59.0 °F 100% 30.18 in 5.0 mi SE 8.1 mph - 0.04 in Rain Light Rain
6:50 AM 60.8 °F 59.0 °F 94% 30.18 in 10.0 mi SSE 6.9 mph - 0.05 in Rain Light Rain
7:10 AM 59.0 °F 59.0 °F 100% 30.18 in 10.0 mi SE 6.9 mph - N/A Rain Light Rain
7:30 AM 60.8 °F 59.0 °F 94% 30.19 in 10.0 mi SE 4.6 mph - N/A   Mostly Cloudy
7:55 AM 60.8 °F 59.0 °F 94% 30.19 in 10.0 mi SE 6.9 mph - N/A   Overcast
8:10 AM 60.8 °F 59.0 °F 94% 30.20 in 10.0 mi SE 3.5 mph - N/A   Overcast
8:30 AM 60.8 °F 59.0 °F 94% 30.19 in 10.0 mi SE 6.9 mph - N/A   Overcast
8:55 AM 62.6 °F 60.8 °F 94% 30.20 in 10.0 mi ESE 8.1 mph - N/A   Overcast
9:10 AM 62.6 °F 60.8 °F 94% 30.20 in 10.0 mi ESE 6.9 mph - N/A   Mostly Cloudy
9:30 AM 62.6 °F 60.8 °F 94% 30.20 in 10.0 mi SSE 8.1 mph - N/A   Overcast
9:50 AM 62.6 °F 62.6 °F 100% 30.19 in 10.0 mi SSE 6.9 mph - N/A   Overcast
10:30 AM 64.4 °F 62.6 °F 94% 30.20 in 10.0 mi SE 8.1 mph - N/A   Overcast
10:50 AM 64.4 °F 62.6 °F 94% 30.20 in 10.0 mi SE 8.1 mph - N/A   Overcast
11:10 AM 66.2 °F 64.4 °F 94% 30.19 in 10.0 mi SE 9.2 mph - N/A   Overcast
11:30 AM 66.2 °F 62.6 °F 88% 30.18 in 10.0 mi SE 10.4 mph - N/A   Overcast
11:50 AM 66.2 °F 64.4 °F 94% 30.18 in 10.0 mi SE 5.8 mph - N/A   Overcast
12:10 PM 68.0 °F 64.4 °F 88% 30.18 in 10.0 mi SE 6.9 mph - N/A   Overcast
12:30 PM 68.0 °F 64.4 °F 88% 30.18 in 10.0 mi SSE 8.1 mph - N/A   Overcast
12:50 PM 68.0 °F 64.4 °F 88% 30.18 in 10.0 mi SSE 6.9 mph - N/A   Overcast
1:10 PM 68.0 °F 64.4 °F 88% 30.18 in 10.0 mi SE 9.2 mph - N/A   Overcast
1:30 PM 68.0 °F 64.4 °F 88% 30.18 in 10.0 mi ESE 10.4 mph - N/A   Overcast
1:50 PM 68.0 °F 64.4 °F 88% 30.18 in 10.0 mi ESE 10.4 mph - N/A   Overcast
2:10 PM 68.0 °F 62.6 °F 83% 30.18 in 10.0 mi SE 11.5 mph - N/A   Overcast
2:30 PM 68.0 °F 64.4 °F 88% 30.17 in 10.0 mi SE 9.2 mph - N/A   Overcast
2:50 PM 68.0 °F 64.4 °F 88% 30.15 in 10.0 mi SE 11.5 mph - N/A   Overcast
3:10 PM 68.0 °F 64.4 °F 88% 30.17 in 10.0 mi SSE 10.4 mph - N/A   Overcast
3:30 PM 68.0 °F 62.6 °F 83% 30.16 in 10.0 mi SE 11.5 mph - N/A   Overcast
3:50 PM 68.0 °F 62.6 °F 83% 30.15 in 10.0 mi SSE 9.2 mph - N/A   Overcast
4:10 PM 68.0 °F 62.6 °F 83% 30.15 in 10.0 mi SE 8.1 mph - N/A   Overcast
4:30 PM 68.0 °F 62.6 °F 83% 30.14 in 10.0 mi SE 8.1 mph - N/A   Overcast
5:10 PM 68.0 °F 62.6 °F 83% 30.14 in 10.0 mi SE 5.8 mph - N/A   Overcast
5:30 PM 69.8 °F 59.0 °F 68% 30.13 in 10.0 mi SE 8.1 mph - N/A   Overcast
5:50 PM 69.8 °F 59.0 °F 68% 30.13 in 10.0 mi SE 9.2 mph - N/A   Overcast
6:10 PM 68.0 °F 59.0 °F 73% 30.13 in 10.0 mi SE 3.5 mph - N/A   Overcast
6:30 PM 68.0 °F 59.0 °F 73% 30.13 in 10.0 mi ESE 5.8 mph - N/A   Overcast
6:50 PM 68.0 °F 59.0 °F 73% 30.13 in 10.0 mi SE 6.9 mph - N/A   Overcast
7:10 PM 68.0 °F 59.0 °F 73% 30.13 in 10.0 mi ESE 8.1 mph - N/A   Overcast
7:30 PM 66.2 °F 57.2 °F 73% 30.14 in 10.0 mi SE 8.1 mph - N/A   Overcast
7:50 PM 66.2 °F 57.2 °F 73% 30.14 in 10.0 mi SE 6.9 mph - N/A   Overcast
8:10 PM 66.2 °F 57.2 °F 73% 30.14 in 10.0 mi SE 6.9 mph - N/A   Overcast
8:30 PM 66.2 °F 57.2 °F 73% 30.14 in 10.0 mi SE 4.6 mph - N/A Rain Light Rain
8:50 PM 66.2 °F 57.2 °F 73% 30.14 in 10.0 mi SE 4.6 mph - N/A   Overcast
9:10 PM 66.2 °F 57.2 °F 73% 30.15 in 10.0 mi SE 5.8 mph - N/A   Overcast
9:30 PM 66.2 °F 59.0 °F 78% 30.15 in 10.0 mi SE 6.9 mph - N/A   Overcast
9:50 PM 66.2 °F 59.0 °F 78% 30.15 in 10.0 mi SE 6.9 mph - N/A   Overcast
10:10 PM 66.2 °F 59.0 °F 78% 30.15 in 10.0 mi SE 8.1 mph - N/A   Overcast
10:30 PM 64.4 °F 59.0 °F 83% 30.16 in 10.0 mi SE 8.1 mph - N/A   Overcast
10:50 PM 64.4 °F 59.0 °F 83% 30.16 in 10.0 mi SE 8.1 mph - N/A   Overcast
11:30 PM 62.6 °F 57.2 °F 82% 30.17 in 10.0 mi SSE 5.8 mph - N/A   Mostly Cloudy
11:50 PM 60.8 °F 57.2 °F 88% 30.17 in 10.0 mi SSE 5.8 mph - N/A   Clear